Regional Weather Roundup
Issued by NWS

Home | Current Version | Previous Version | Text Only | Print | Product List | Glossary Off
Versions: 1 2 3 4 5 6 7 8 9 10 11 12 13 14 15 16 17 18 19 20 21 22 23 24 25 26 27 28 29 30 31 32 33 34 35 36 37 38 39 40 41 42 43 44 45 46 47 48 49 50

176
ASUS45 KTFX 160810
RWRMT
MONTANA REGIONAL WEATHER ROUNDUP
NATIONAL WEATHER SERVICE GREAT FALLS MT
200 AM MDT MON OCT 16 2017

NOTE: "FAIR" INDICATES FEW OR NO CLOUDS BELOW 12000 FEET WITH NO
SIGNIFICANT WEATHER AND/OR OBSTRUCTIONS TO VISIBILITY.

MTZ001>007-043-160900-
WEST OF THE DIVIDE

CITY           SKY/WX    TMP DP  RH WIND       PRES   REMARKS
KALISPELL      CLEAR     26  26 100 CALM      30.22S
MISSOULA       CLEAR     32  29  88 NW3       30.26R
BUTTE          CLOUDY    31  26  82 CALM      30.28R
MULLAN PASS    CLEAR     38  19  46 SW8       30.27R
ANACONDA         N/A     43  25  49 S5        30.24S
DEER LODGE       N/A     36  28  75 NW3       30.26S
EUREKA           N/A     37  30  75 MISG      30.19F
HAMILTON         N/A     39  28  65 E5        30.26R
LIBBY            N/A     28  28 100 CALM      30.23F
PLAINS           N/A     31  26  81 CALM      30.24S
$$

MTZ008-052>055-160900-
SOUTHWEST MONTANA

CITY           SKY/WX    TMP DP  RH WIND       PRES   REMARKS
BOZEMAN        CLOUDY    39  30  70 VRB6      30.25S
DILLON         CLOUDY    40  21  46 S13       30.29F
W YELLOWSTONE  CLOUDY    21  19  93 CALM      30.42S
ENNIS          CLOUDY    41  21  45 S18G24    30.34S
THREE FORKS      N/A     48  28  46 CALM      30.19S
$$

MTZ009-010-012-014-046-048-049-054-160900-
EAST SLOPES AND CENTRAL MONTANA

CITY           SKY/WX    TMP DP  RH WIND       PRES   REMARKS
CUT BANK       CLOUDY    50  30  46 SW20G28   30.05S
GREAT FALLS    CLOUDY    53  30  41 SW22      30.07F
MALMSTROM AFB  CLOUDY    55  30  38 SW24      30.08F
HELENA         CLOUDY    41  33  73 CALM      30.19S
BOWMANS CRNR     N/A     50  28  41 SW26      30.09F
CHOTEAU          N/A     52  28  40 S7        30.11S
FAIRFIELD        N/A     51  29  42 SW9       30.09S
POWER            N/A     51  29  43 SW16G28   30.07S
RAYNESFORD       N/A     58  27  30 W24G31    30.10F
ULM              N/A     56  29  36 W20G31    30.11S
$$

MTZ011-013-016-021-045-047-050-051-160900-
NORTH CENTRAL MONTANA

CITY           SKY/WX    TMP DP  RH WIND       PRES   REMARKS
HAVRE          CLEAR     50  34  54 SW17      29.97F
LEWISTOWN      CLOUDY    51  30  44 SW17      30.10
N BAR RANCH      N/A     48  25  40 W9G15     30.09F
CHINOOK          N/A     55  32  41 SW22G28   29.93F
DENTON           N/A     55  29  37 SW15      30.04S
GEYSER           N/A     53  29  39 W21       30.07R
GRASS RANGE      N/A     52  28  39 W21G28    30.03F
JUDITH GAP       N/A     51  28  40 SW22G28   30.15R
WINIFRED         N/A     50  31  48 W8        30.07R
$$

MTZ017>020-022>027-061-062-160900-
NORTHEAST MONTANA

CITY           SKY/WX    TMP DP  RH WIND       PRES   REMARKS
GLASGOW        CLEAR     46  32  58 W5        29.97F
JORDAN           N/A     46  33  60 W9        30.02F
SIDNEY         CLEAR     34  29  82 S10       30.02F WCI  26
WOLF POINT     CLEAR     32  26  78 CALM      29.98F
MALTA          CLEAR     36  32  87 SW5       29.95F
PLENTYWOOD       N/A     43  28  56 CALM      29.95F
POPLAR           N/A     43  30  61 SW3       29.98F
SCOBEY           N/A     45  25  45 S3        29.93F
$$

MTZ028>42-056>058-160900-
SOUTHCENTRAL AND SOUTHEAST MONTANA

CITY           SKY/WX    TMP DP  RH WIND       PRES   REMARKS
BAKER          CLEAR     51  29  42 SW17G24   30.10F
BILLINGS       CLOUDY    51  27  39 SW15      30.14S
LIVINGSTON     CLOUDY    51  25  36 W15G31    30.22R
MILES CITY     CLEAR     39  30  70 SE6       30.09F
BIG TIMBER     CLEAR     52  23  32 W22G29    30.20S
EKALAKA          N/A     53  23  31 S1        30.10F
FORSYTH          N/A     48  27  43 CALM      30.08F
HARLOWTON        N/A     49  28  43 MISG      30.14F
LAUREL           N/A     50  27  40 W13       30.15S
$$

REGIONAL REPORTS...DAKOTAS

CITY           SKY/WX    TMP DP  RH WIND       PRES   REMARKS
WILLISTON      CLEAR     35  29  78 SW3       30.00F
MINOT          CLEAR     44  32  62 S9        30.02F
DICKINSON      CLEAR     38  28  67 S14       30.06F WCI  30
BEACH            N/A     46  27  46 SW15      30.09F
CROSBY           N/A     39  30  70 S14       29.95F WCI  31
TIOGA            N/A     41  28  60 S6        30.01F
BISMARCK       CLEAR     32  28  85 CALM      30.13F
GRAND FORKS    CLOUDY    32  29  88 SW7       30.11F WCI  26
FARGO          PTCLDY    34  31  88 S6        30.16F WCI  29
BUFFALO SD       N/A     40  28  62 SW7       30.08F
RAPID CITY     CLEAR     37  27  67 CALM      30.20F
$$

REGIONAL REPORTS...WYOMING/IDAHO/WASHINGTON

CITY           SKY/WX    TMP DP  RH WIND       PRES   REMARKS
GILLETTE       CLOUDY    40  26  57 CALM      30.20F
SHERIDAN       CLOUDY    30  25  81 SW3       30.17F
BUFFALO WY     CLOUDY    45  18  34 W9        30.21F
CODY           CLOUDY    53  23  31 SW10      30.25F
YELLOWSTONE LA   N/A     23  22  96 CALM      30.44F
IDAHO FALLS    CLOUDY    29  25  85 N5        30.40S
SALMON         CLEAR     31  26  82 CALM      30.36
BOISE          CLEAR     39  28  64 CALM      30.35S
SPOKANE        PTCLDY    41  33  73 CALM      30.26R
$$

REGIONAL REPORTS...ALBERTA

CITY           SKY/WX    TMP DP  RH WIND       PRES   REMARKS
EDMONTON       CLEAR     39  30  70 SW6       29.75R
CALGARY        PTCLDY    54  25  32 W7G18     29.87R
LETHBRIDGE     CLEAR     52  28  40 SW23G35   29.92F
MEDICINE HAT   CLEAR     50  34  53 SW15G21   29.87S
$$

REGIONAL REPORTS...SASKATCHEWAN

CITY           SKY/WX    TMP DP  RH WIND       PRES   REMARKS
SWIFT CURRENT  CLEAR     46  32  57 SW21G29   29.82S
REGINA         CLEAR     39  30  70 S13       29.82F WCI  32
SASKATOON      PTCLDY    37  30  75 S8        29.73F WCI  31
$$




USA.gov is the U.S. government's official web portal to all federal, state and local government web resources and services.